126P/IRAS (2023)

Japanese version
Home page
Updated on December 1, 2023

---------------------------------------------------------------------

* Profile

* Pictures

* Orbital Elements

Epoch 2023 Feb. 25.0 TT = JDT 2460000.5
T 2023 July 5.30639 TT                                  Rudenko
q   1.7105217            (2000.0)            P               Q
n   0.07370344     Peri.  356.59637     +0.99601216     +0.08514082
a   5.6339227      Node   357.87149     -0.05496024     +0.35013056
e   0.6963889      Incl.   45.87652     -0.07027914     +0.93282347
P  13.4
>From 400 observations 1983 July 1-2023 Mar. 18, mean residual 1".0.
     Nongravitational parameters A1 = +0.29, A2 = -0.0655.

* Finding Charts

* Magnitudes Graph

        m1 = 9.2 + 5 log d + 15.0 log r

---------------------------------------------------------------------

The orbital elements are published on M.P.E.C. 2023-F81.
The charts are made with StellaNavigator Ver.10 (AstroArts).
The magnitudes graphs are made with Comet for Windows.

---------------------------------------------------------------------

Copyright(C) Seiichi Yoshida (comet@aerith.net). All rights reserved.